Flag for Germany Weather past 2 weeks in Pulheim, North Rhine-Westphalia, Germany

Now
59 °F

Passing clouds.


Feels Like: 59 °F
Forecast: 54 / 80 °F
Wind: No wind

Location: Noervenich

Current Time: Aug 28, 2015 at 10:18:13 PM

Latest Report: Aug 28, 2015 at 9:20 PM


Visibility: N/A

Pressure: 30.15 "Hg

Humidity: 88%

Dew point: 55 °F

Location of PulheimLocation

Historic Weather in Pulheim — Graph

°F

Pulheim temperature yesterday

Maximum temperature yesterday: 73 °F (at 12:20 AM)
Minimum temperature yesterday: 55 °F (at 5:00 PM)
Average temperature yesterday: 63 °F

Past Weeks' High & Low Weather Summary

 TemperatureHumidityPressure
High84 °F (Aug 13, 8:20 PM)100% (Aug 15, 9:20 PM)30.24 "Hg (Aug 15, 9:20 PM)
Low48 °F (Aug 19, 6:20 AM)30% (Aug 23, 3:20 PM)29.53 "Hg (Aug 24, 2:20 PM)
Average64 °F74%29.94 "Hg
* Reported Aug 13 8:20 PM — Aug 28 8:20 PM, Pulheim, Weather by CustomWeather, © 2015

Note: Actual official high and low records may vary slightly from our data, if they occured in-between our weather recording intervals... More about our weather records

Advertising

Pulheim weather history for previous 24 hours

 ConditionsComfort  
Time TempWeatherWind HumidityBarometerVisibility
8:20 PM
Fri, Aug 28
64 °FPassing clouds.1 mph78%30.12 "HgN/A
7:20 PM68 °FPartly sunny.2 mph60%30.12 "HgN/A
6:20 PM68 °FPartly sunny.No wind60%30.09 "HgN/A
5:20 PM68 °FPartly sunny.2 mph60%30.09 "HgN/A
4:20 PM68 °FPartly sunny.3 mph60%30.09 "HgN/A
3:20 PM68 °FPassing clouds.2 mph56%30.09 "HgN/A
2:20 PM66 °FScattered clouds.3 mph64%30.09 "HgN/A
1:20 PM66 °FPartly sunny.3 mph64%30.07 "HgN/A
1:03 PM66 °FPartly sunny.2 mph64%30.07 "HgN/A
12:20 PM64 °FBroken clouds.2 mph68%30.07 "HgN/A
11:20 AM63 °FPartly sunny.1 mph68%30.07 "HgN/A
10:20 AM63 °FPassing clouds.2 mph73%30.04 "HgN/A
9:20 AM59 °FPassing clouds.3 mph82%30.04 "HgN/A
8:20 AM57 °FPassing clouds.1 mph94%30.01 "HgN/A
7:20 AM54 °FFog.1 mph100%30.01 "Hg4 mi
6:20 AM54 °FFog.No wind100%29.98 "Hg4 mi
5:20 AM55 °FFog.1 mph94%29.98 "HgN/A
4:20 AM55 °FPartly cloudy.No wind94%29.95 "HgN/A
3:20 AM55 °FPartly cloudy.1 mph100%29.95 "HgN/A
2:20 AM55 °FPartly cloudy.1 mph100%29.95 "HgN/A
1:20 AM55 °FPartly cloudy.1 mph100%29.95 "HgN/A
12:20 AM55 °FRain. Overcast.No wind100%29.92 "Hg5 mi
11:20 PM
Thu, Aug 27
55 °FRain. Fog.No wind100%29.89 "Hg3 mi
10:20 PM55 °FRain. Fog.1 mph100%29.89 "Hg3 mi
Weather by CustomWeather, © 2015

See weather overviewHow to use our weather pages